| time (UTC) | temp C | wind direction | speed KPH | gust KPH | rain 1hr cm | rain 24hr cm | rain mn cm | humidity % | barometer mb |
| 20260502191406 | 22 | 319 | 0.0 | 0.0 | 0.00 | 3.33 | 0.00 | 63 | 1015.3 |
| 20260502190348 | 22 | 316 | 0.0 | 0.0 | 0.00 | 3.33 | 0.00 | 64 | 1015.3 |
| 20260502184200 | 22 | 316 | 0.0 | 0.0 | 0.00 | 3.33 | 0.00 | 65 | 1015.2 |
| 20260502182015 | 22 | 299 | 0.0 | 0.0 | 0.00 | 3.33 | 0.00 | 65 | 1015.4 |
| 20260502162500 | 18 | 47 | 0.0 | 0.0 | 0.00 | 3.43 | 0.00 | 72 | 1016.2 |
| 20260502161445 | 18 | 295 | 0.0 | 0.0 | 0.00 | 3.43 | 0.00 | 73 | 1016.1 |
| 20260502152143 | 17 | 281 | 0.0 | 0.0 | 0.00 | 3.43 | 0.00 | 72 | 1016.1 |
| 20260502151113 | 17 | 293 | 0.0 | 0.0 | 0.00 | 3.43 | 0.00 | 69 | 1016.0 |
| 20260502150128 | 17 | 76 | 0.0 | 0.0 | 0.00 | 3.43 | 0.00 | 69 | 1016.0 |
| 20260502005440 | 15 | 64 | 0.0 | 0.0 | 0.15 | 3.43 | 3.43 | 1 | 1011.1 |
| 20260502004453 | 15 | 72 | 0.0 | 0.0 | 0.15 | 3.43 | 3.43 | 1 | 1011.2 |
| 20260502002306 | 15 | 269 | 0.0 | 0.0 | 1.40 | 3.23 | 3.30 | 1 | 1010.6 |
| 20260502001235 | 15 | 65 | 0.0 | 0.0 | 0.64 | 3.10 | 3.17 | 1 | 1010.7 |
| 20260502000204 | 15 | 64 | 0.0 | 0.0 | 0.10 | 3.07 | 3.05 | 1 | 1010.0 |
| 20260501233941 | 15 | 68 | 0.0 | 0.0 | 0.71 | 3.10 | 3.02 | 5 | 1010.8 |
| 20260501232956 | 15 | 55 | 0.0 | 0.0 | 1.04 | 2.95 | 2.87 | 5 | 1010.5 |
| 20260501231946 | 15 | 43 | 0.0 | 0.0 | 0.33 | 2.90 | 2.72 | 6 | 1010.5 |
| 20260501230956 | 15 | 74 | 0.0 | 0.0 | 1.19 | 2.87 | 2.64 | 7 | 1010.1 |
| 20260501225954 | 15 | 61 | 0.0 | 0.0 | 0.00 | 2.95 | 2.59 | 5 | 1009.9 |
| 20260501223819 | 15 | 33 | 0.0 | 0.0 | 0.00 | 3.15 | 2.57 | 4 | 1010.5 |
| 20260501222753 | 16 | 293 | 0.0 | 0.0 | 0.00 | 3.23 | 2.57 | 1 | 1010.5 |
| 20260501220628 | 16 | 43 | 0.0 | 0.0 | 0.00 | 3.35 | 2.57 | 1 | 1009.8 |
| 20260501215621 | 16 | 58 | 0.0 | 0.0 | 0.00 | 3.38 | 2.57 | 1 | 1009.9 |
| 20260501214550 | 17 | 322 | 0.0 | 0.0 | 0.10 | 3.43 | 2.57 | 1 | 1010.6 |
| 20260501213527 | 17 | 343 | 0.0 | 0.0 | 0.23 | 3.53 | 2.57 | 1 | 1010.2 |
| 20260501212457 | 17 | 39 | 0.0 | 0.0 | 0.66 | 3.45 | 2.51 | 1 | 1010.6 |
| 20260501211509 | 17 | 58 | 0.0 | 0.0 | 0.30 | 3.43 | 2.46 | 1 | 1010.7 |
| 20260501205259 | 17 | 315 | 0.0 | 0.0 | 0.36 | 3.28 | 2.34 | 1 | 1011.3 |
| 20260501203122 | 17 | 326 | 0.0 | 0.0 | 1.68 | 2.97 | 2.13 | 1 | 1010.5 |
| 20260501202116 | 17 | 15 | 0.0 | 0.0 | 2.97 | 2.51 | 1.88 | 1 | 1010.4 |
| 20260501201045 | 18 | 30 | 0.0 | 0.0 | 11.58 | 1.57 | 1.09 | 1 | 1010.9 |
| 20260501194900 | 18 | 300 | 0.0 | 0.0 | 0.36 | 1.22 | 0.25 | 1 | 1009.6 |
| 20260501193832 | 18 | 85 | 0.0 | 0.0 | 0.53 | 1.19 | 0.18 | 1 | 1009.3 |
| 20260501192827 | 18 | 81 | 0.0 | 0.0 | 0.00 | 1.14 | 0.10 | 1 | 1009.4 |
| 20260501191848 | 18 | 77 | 0.0 | 0.0 | 0.00 | 1.14 | 0.10 | 1 | 1009.2 |